Location: Newark
(45.0333°N, 18.2865°E)
Time: 22:03:37
(UTC+00:00)

N. Korean satellite - Pass Details

Date: 27 September 2021
Orbit: 450 x 494 km, 97.3° (Epoch: 28 October)

Event Time Altitude Azimuth Distance (km) Brightness Sun altitude
Rises 04:06:59 0° 12° (NNE) 2,535 10.4 -6.7°
Reaches altitude 10° 04:09:02 10° 13° (NNE) 1,660 9.5 -6.3°
Maximum altitude 04:12:37 87° 99° (E) 490 6.6 -5.7°
Drops below altitude 10° 04:16:13 10° 192° (SSW) 1,670 9.1 -5.0°
Sets 04:18:17 0° 193° (SSW) 2,553 10.1 -4.7°
